Showing default

METEOSAT 2, 12544

Orbit data source: Space-Track

METEOSAT 2, 12544 is a payload satellite owned by ESA (ESA) in GEO that was launched on Fri, 19 Jun 1981 UTC via an ARIANE 1 launch vehicle from the French Guiana (FRGUI). Payload-class satellites include a variety of spacecraft equipped with specific instruments for various scientific and technological missions. These include communications satellites like Starlink; space stations such as the ISS; scientific satellites like the Hubble; Earth observation satellites from companies like Planet Labs, Umbra, and HawkEye 360; GPS; miniature CubeSats for education and research; and military/defense satellites.

Not visible in the next 10 days
Identifier
12544, 1981-057A
Orbit
GEO
Country
Flag of ESAESA
Related business
Manufacturer
Ae/Cannes
Mission
Non-operational spacecraft
Bus & Motor
METEOSAT, MAGE 1
Mass
324 kg wet, 282 kg dry
Launch date (UTC)
1981-06-19 (44 years ago)
Launch vehicle
ARIANE 1
Launch site
French Guiana (FRGUI)
Object type
Payload
Rocket body
Debris
Shape & HBR
Unknown
Radar Cross Section
Large (>1 m²)

Expand to show TLE details & history
Last TLE update: 9 hours ago

TLE from 9 hours ago
0 METEOSAT 2
1 12544U 81057A   25308.11916306  .00000030  00000-0  00000-0 0  9995
2 12544  10.6542 320.7686 0028193   6.5683 177.1850  0.98722781121624
Epoch: 2025-11-04T02:51Z
TLE epoch observation values (Epoch: 2025-11-04T02:51:35.688Z)
Latitude
-0.71311°
Longitude
57.94191°
Altitude
36,345.576 km
Speed
3.05 km/s
True Right ascension
09h 37m 48s
True Declination
0° 42' 45"
Sunlit
Object was in daylight at epoch
Visualization orbit readout
Latitude
Unknown
Longitude
Unknown
Altitude
Unknown
Speed
Unknown
Apparent Right ascension
Unknown
Apparent Declination
Unknown
Sunlit
N/A
Visualization observer readout
Local Sidereal Time
08:02:02
Azimuth
Unknown
Elevation
Unknown
Doppler factor
Unknown
Orbital elements
Apogee altitude
36,347.63 km
Perigee altitude
36,107.394 km
Semi-major axis
42,605.649 km
Eccentricity
0.00282
Inclination
10.6542°
RAAN
320.7686°
Arg. of periapsis
6.5683°
True anomaly
177.20081°
Mean anomaly
177.185°
Eccentric anomaly
177.19291°
Mean motion
0.2468 °/min
Orbital period
1,458.68 mins
BSTAR
0
Loading maneuver chart data...
Computing Atmospheric mass density...
Loading historical data...
Loading historical data...
Loading historical data...
Loading historical data...
Loading historical data...
Loading historical data...
Loading historical data...

Documentation

Showing up to 5 results
|